Regional Weather Roundup
Issued by NWS

Home | Current Version | Previous Version | Text Only | Print | Product List | Glossary On
Versions: 1 2 3 4 5 6 7 8 9 10 11 12 13 14 15 16 17 18 19 20 21 22 23 24 25 26 27 28 29 30 31 32 33 34 35 36 37 38 39 40 41 42 43 44 45 46 47 48 49 50
000
ASUS43 KDTX 182310
RWRMI
MICHIGAN HOURLY REGIONAL WEATHER ROUNDUP
NATIONAL WEATHER SERVICE DETROIT/PONTIAC MI
ISSUED BY NATIONAL WEATHER SERVICE GRAND RAPIDS MI
700 PM EDT FRI AUG 18 2017

NOTE: "FAIR" INDICATES FEW OR NO CLOUDS BELOW 12,000 FEET WITH NO
SIGNIFICANT WEATHER AND/OR OBSTRUCTION TO VISIBILITY.

MIZ047>049-052>055-059>063-066>070-074>076-081>083-190000-
SOUTHEAST LOWER MICHIGAN

CITY           SKY/WX    TMP DP  RH WIND       PRES   REMARKS
ADRIAN         SUNNY     75  61  61 NW12      29.85S
ALMA           CLOUDY    69  59  70 W14G23    29.83S
ANN ARBOR      PTSUNNY   76  60  57 MISG      29.83S
BAD AXE        LGT RAIN  67  64  88 W5        29.79R
DETROIT CITY   CLOUDY    75  60  59 W14G21    29.81R
DETROIT        PTSUNNY   76  62  62 W15       29.83R
FLINT          CLOUDY    70  60  70 W13       29.82R
GROSSE ILE     CLOUDY    77  62  60 W15       29.81R
HILLSDALE      CLOUDY    73  59  60 W9G17     29.86S
HOWELL         CLOUDY    71  61  68 W9        29.84S

CITY           SKY/WX    TMP DP  RH WIND       PRES   REMARKS
JACKSON        PTSUNNY   73  60  63 W12       29.86R
LANSING        CLOUDY    70  59  68 W13G23    29.86R
MASON          CLOUDY    73  61  67 W10G20    29.86R
MONROE         CLOUDY    77  63  60 W8G16     29.82S
MT. CLEMENS    PTSUNNY   75  61  61 W12G22    29.79R
PONTIAC        CLOUDY    72  60  66 W21G26    29.82R
PORT HOPE        N/A     69  63  81 W8        29.75R
PORT HURON     CLOUDY    73  61  64 W6        29.80R
TRI CITIES     CLOUDY    71  63  75 W14       29.81R
YPSILANTI      CLOUDY    78  62  57 W16       29.83R
$$
MIZ043>046-050>051-056>058-064>065-071>073-077>080-190000-
SOUTHWEST LOWER MICHIGAN

CITY           SKY/WX    TMP DP  RH WIND       PRES   REMARKS
BATTLE CREEK   CLOUDY    72  60  66 NW9       29.87S
BENTON HARBOR  SUNNY     74  60  61 CALM      29.86S
BIG RAPIDS     CLOUDY    66  59  77 NW7       29.83S
COLDWATER      MOSUNNY   74  59  59 NW10      29.87R
HOLLAND        CLOUDY    71  61  70 W7        29.86S
GRAND RAPIDS   CLOUDY    71  59  65 W10       29.85S
KALAMAZOO      MOSUNNY   75  58  55 NW13      29.86F
MARSHALL       CLOUDY    73  59  62 W10G20    29.86S
MOUNT PLEASANT CLOUDY    71  59  67 W7        29.82R
MUSKEGON       PTSUNNY   73  61  65 W9        29.85S
STURGIS        SUNNY     74  62  65 NW6       29.86F
$$
MIZ016>042-190000-
NORTHERN LOWER MICHIGAN

CITY           SKY/WX    TMP DP  RH WIND       PRES   REMARKS
ALPENA         CLOUDY    66  60  81 W9G22     29.75R
BEAVER ISLAND  CLOUDY    64  56  77 W12G18    29.78R
BELLAIRE       CLOUDY    63  60  91 CALM      29.80R
CADILLAC       CLOUDY    64  59  82 W6        29.83R
CHARLEVOIX     CLOUDY    64  60  90 W13G20    29.81S
GAYLORD        CLOUDY    60  57  89 W9        29.79S
HOUGHTON LAKE  CLOUDY    63  60  90 W14       29.82R
MANISTEE       CLOUDY    69  61  75 W5        29.82R
OSCODA         CLOUDY    71  59  66 W17G28    29.75R
PELLSTON       CLOUDY    63  57  81 W15G22    29.76R
TRAVERSE CITY  CLOUDY    67  57  70 W9        29.79R
LUDINGTON      CLOUDY    68  61  77 CALM      29.82S
$$
MIZ007>008-015-190000-
EASTERN UPPER MICHIGAN

CITY           SKY/WX    TMP DP  RH WIND       PRES   REMARKS
KINROSS        CLOUDY    61  58  90 W8        29.73R
MACKINAC ISLAN CLOUDY    62  60  92 W13G20    29.74R
NEWBERRY       CLOUDY    60  59  97 W9        29.74R FOG
S. S. MARIE    CLOUDY    61  58  90 W13       29.70R
$$
MIZ004>006-011>014-085-190000-
CENTRAL UPPER MICHIGAN

CITY           SKY/WX    TMP DP  RH WIND       PRES   REMARKS
MANISTIQUE     CLOUDY    61  55  80 NW8G18    29.77R
ESCANABA       CLOUDY    64  57  78 NW6       29.80S
MENOMINEE      MOSUNNY   69  57  65 N8        29.82R
SAWYER-GWINN   CLOUDY    61  55  82 NW8       29.81R
$$
MIZ001>003-009>011-084-190000-
WESTERN UPPER MICHIGAN

CITY           SKY/WX    TMP DP  RH WIND       PRES   REMARKS
IRON MOUNTAIN  CLOUDY    65  54  67 NW6       29.82S
HOUGHTON       MOSUNNY   64  57  78 W15       29.81R
COPPER HARBOR    N/A     65  55  70 N12       29.78R
IRONWOOD       PTSUNNY   65  57  75 W3        29.86R
$$

ABBREVIATIONS USED IN REMARKS
   TC - TEMPERATURE IN CELSIUS
  WCI - WIND CHILL INDEX
   HX - HEAT INDEX
  VSB - VISIBILITY





USA.gov is the U.S. government's official web portal to all federal, state and local government web resources and services.